Location: Larch Mountain
(45.5297°N, 122.0872°W)
Time: 12:53:04
(UTC-07:00)

ISS - All Passes

Search period start: 31 May 2016 00:00
Search period end: 10 June 2016 00:00
Orbit: 402 x 404 km, 51.6° (Epoch: 31 May)

Date Brightness Start Highest point End Pass type
(mag) Time Alt. Az. Time Alt. Az. Time Alt. Az.
31 May - 00:31:36 10° NW 00:34:31 28° N 00:37:24 10° ENE visible
31 May - 02:08:03 10° WNW 02:11:19 72° NNE 02:14:35 10° ESE visible
31 May - 03:45:05 10° W 03:47:27 18° SW 03:49:48 10° S visible
31 May - 20:25:05 10° SSW 20:28:08 38° SE 20:31:12 10° ENE daylight
31 May - 22:01:26 10° W 22:04:34 43° NNW 22:07:43 10° NE visible
31 May - 23:38:41 10° WNW 23:41:32 26° N 23:44:23 10° ENE visible
01 Jun - 01:15:17 10° NW 01:18:29 47° NNE 01:21:39 10° E visible
01 Jun - 02:51:52 10° WNW 02:54:50 32° SW 02:57:47 10° SSE visible
01 Jun - 19:32:55 10° S 19:35:30 22° SE 19:38:05 10° E daylight
01 Jun - 21:08:27 10° WSW 21:11:42 63° NNW 21:14:57 10° ENE daylight
01 Jun - 22:45:41 10° WNW 22:48:33 27° N 22:51:25 10° NE visible
02 Jun - 00:22:30 10° NW 00:25:34 35° NNE 00:28:36 10° E visible
02 Jun - 01:58:55 10° WNW 02:02:09 58° SSW 02:05:21 10° SE visible
02 Jun - 18:41:29 10° SSE 18:42:54 12° SE 18:44:21 10° ESE daylight
02 Jun - 20:15:36 10° SW 20:18:53 80° SSE 20:22:09 10° ENE daylight
02 Jun - 21:52:35 10° WNW 21:55:34 31° NNW 21:58:32 10° NE visible
02 Jun - 23:29:40 10° NW 23:32:36 29° N 23:35:31 10° ENE visible
03 Jun - 01:06:04 10° WNW 01:09:21 83° NNE 01:12:37 10° ESE visible
03 Jun - 02:43:22 10° W 02:45:25 16° SW 02:47:28 10° S night (unlit)
03 Jun - 19:22:58 10° SW 19:26:06 45° SE 19:29:15 10° ENE daylight
03 Jun - 20:59:30 10° W 21:02:36 39° NNW 21:05:43 10° NE daylight
03 Jun - 22:36:44 10° WNW 22:39:35 27° N 22:42:26 10° ENE visible
04 Jun - 00:13:16 10° NW 00:16:30 53° NNE 00:19:42 10° E visible
04 Jun - 01:49:58 10° W 01:52:47 27° SW 01:55:37 10° SSE visible
04 Jun - 18:30:39 10° SSW 18:33:24 25° SE 18:36:10 10° E daylight
04 Jun - 20:06:27 10° WSW 20:09:40 55° NNW 20:12:54 10° ENE daylight
04 Jun - 21:43:42 10° WNW 21:46:34 27° N 21:49:26 10° ENE visible
04 Jun - 23:20:28 10° NW 23:23:33 38° NNE 23:26:39 10° E visible
05 Jun - 00:56:54 10° WNW 01:00:04 48° SW 01:03:14 10° SE visible
05 Jun - 17:38:52 10° S 17:40:46 15° SE 17:42:40 10° E daylight
05 Jun - 19:13:31 10° WSW 19:16:47 88° NNW 19:20:05 10° ENE daylight
05 Jun - 20:50:36 10° WNW 20:53:32 30° N 20:56:28 10° NE daylight
05 Jun - 22:27:36 10° NW 22:30:34 30° N 22:33:31 10° ENE visible
06 Jun - 00:04:00 10° WNW 00:07:16 85° SSW 00:10:32 10° ESE visible
06 Jun - 01:41:36 10° WSW 01:43:16 13° SW 01:44:54 10° SSW visible
06 Jun - 18:20:47 10° SW 18:23:58 53° SE 18:27:10 10° ENE daylight
06 Jun - 19:57:27 10° W 20:00:31 36° NNW 20:03:35 10° NE daylight
06 Jun - 21:34:39 10° WNW 21:37:31 27° N 21:40:23 10° ENE visible
06 Jun - 23:11:08 10° WNW 23:14:23 59° NNE 23:17:37 10° ESE visible
07 Jun - 00:47:57 10° W 00:50:37 23° SW 00:53:17 10° SSE visible
07 Jun - 17:28:18 10° SSW 17:31:12 30° SE 17:34:07 10° ENE daylight
07 Jun - 19:04:21 10° W 19:07:32 49° NNW 19:10:45 10° NE daylight
07 Jun - 20:41:37 10° WNW 20:44:28 27° N 20:47:18 10° ENE daylight
07 Jun - 22:18:18 10° NW 22:21:26 41° NNE 22:24:33 10° E visible
07 Jun - 23:54:47 10° WNW 23:57:53 41° SW 00:00:59 10° SE visible
08 Jun - 16:36:17 10° S 16:38:31 17° SE 16:40:45 10° E daylight
08 Jun - 18:11:20 10° WSW 18:14:36 77° NNW 18:17:53 10° ENE daylight
08 Jun - 19:48:29 10° WNW 19:51:23 29° N 19:54:18 10° NE daylight
08 Jun - 21:25:25 10° NW 21:28:25 32° NNE 21:31:24 10° ENE visible
08 Jun - 23:01:48 10° WNW 23:05:04 74° SSW 23:08:19 10° SE visible
09 Jun - 00:39:57 10° WSW 00:40:59 11° SW 00:42:01 10° SSW visible
09 Jun - 17:18:29 10° SW 17:21:43 63° SSE 17:24:58 10° ENE daylight
09 Jun - 18:55:18 10° W 18:58:20 34° NNW 19:01:22 10° NE daylight
09 Jun - 20:32:27 10° NW 20:35:20 28° N 20:38:14 10° ENE daylight
09 Jun - 22:08:54 10° WNW 22:12:10 68° NNE 22:15:25 10° ESE visible
09 Jun - 23:45:51 10° W 23:48:19 20° SW 23:50:47 10° S visible
